Hourly Data Report for December 25, 2020

CARBERRY CS
MANITOBA
Current Station Operator: ECCC - MSC

49°54'20.900" N
99°21'26.800" W
383.50 m
5010547
71170
WZE

Download Data

Hourly Data (December 2020)
Hourly Data Report for December 25, 2020
TIME
LST
Temp Definition
°C
Dew Point Definition
°C
Rel Hum Definition
%
Precip. Amount Definition
mm

Wind Dir Definition
10's deg

Wind Spd Definition
km/h
Visibility Definition
km
Stn Press Definition
kPa
Hmdx Definition


Wind Chill Definition


Weather Definition


00:00 -12.4 -15.0 81 0.0 20 16   96.21   -20 LegendNANA
01:00 -12.4 -14.6 83 0.0 20 13   96.15   -19 LegendNANA
02:00 -11.9 -13.9 85 0.0 22 14   96.08   -19 LegendNANA
03:00 -10.9 -12.7 86 0.0 24 16   96.11   -18 LegendNANA
04:00 -11.3 -13.3 85 0.0 25 16   96.05   -19 LegendNANA
05:00 -11.3 -12.9 88 0.0 26 14   96.07   -18 LegendNANA
06:00 -12.5 -14.3 86 0.0 20 5   96.15   -16 LegendNANA
07:00 -11.1 -13.0 86 0.0 25 12   96.24   -17 LegendNANA
08:00 -11.2 -12.9 87 0.0 26 10   96.26   -17 LegendNANA
09:00 -11.2 -13.4 84 0.0 26 14   96.29   -18 LegendNANA
10:00 -8.2 -10.8 81 0.0 26 15   96.39   -15 LegendNANA
11:00 -3.0 -6.6 76 0.0 30 21   96.45   -9 LegendNANA
12:00 -1.4 -5.9 72 0.0 31 21   96.46   -7 LegendNANA
13:00 -0.6 -5.5 70 0.0 31 22   96.44   -6 LegendNANA
14:00 -0.4 -5.2 70 0.0 31 22   96.47   -6 LegendNANA
15:00 -0.3 -5.3 69 0.0 30 19   96.53   -5 LegendNANA
16:00 -1.5 -6.3 70 0.0 28 18   96.59   -7 LegendNANA
17:00 -4.1 -7.3 78 0.0 27 20   96.66   -10 LegendNANA
18:00 -4.8 -8.0 78 0.0 28 23   96.71   -12 LegendNANA
19:00 -6.4 -9.1 81 0.0 28 20   96.68   -13 LegendNANA
20:00 -6.4 -9.8 77 0.0 31 13   96.72   -12 LegendNANA
21:00 -6.7 -9.8 79 0.0 32 13   96.77   -12 LegendNANA
22:00 -7.3 -10.5 78 0.0 34 13   96.76   -13 LegendNANA
23:00 -9.0 -11.0 85 0.0 2 5   96.72   -12 LegendNANA

Notes on Data Quality.

Legend

  • E = Estimated
  • M = Missing
  • NA = Not Available*
  • [empty] = Indicates an unobserved value
Date modified: